Flag for Canada Weather past 2 weeks in Saskatoon, Saskatchewan, Canada

Now
52 °F

Clear.


Feels Like: 49 °F
Forecast: 51 / 75 °F
Wind: 7 mph from Northwest

Location: Saskatoon Weather Station

Current Time: Aug 2, 2015 at 1:17:35 AM

Latest Report: Aug 2, 2015 at 12:00 AM


Visibility: 15 mi

Pressure: 29.97 "Hg

Humidity: 94%

Dew point: 50 °F

Location of SaskatoonLocation

Historic Weather in Saskatoon — Graph

°F

Saskatoon temperature yesterday

Maximum temperature yesterday: 73 °F (at 11:00 AM)
Minimum temperature yesterday: 54 °F (at 4:00 AM)
Average temperature yesterday: 64 °F

Past Weeks' High & Low Weather Summary

 TemperatureHumidityPressure
High88 °F (Jul 21, 3:00 PM)100% (Jul 18, 3:00 AM)30.20 "Hg (Jul 18, 3:00 AM)
Low46 °F (Jul 31, 4:00 AM)27% (Jul 25, 2:00 PM)29.56 "Hg (Jul 22, 4:00 AM)
Average66 °F67%29.86 "Hg
* Reported Midnight between Jul 17 and Jul 18 — Midnight between Aug 1 and Aug 2, Saskatoon, Weather by CustomWeather, © 2015

Note: Actual official high and low records may vary slightly from our data, if they occured in-between our weather recording intervals... More about our weather records

Advertising

Saskatoon weather history for previous 24 hours

 ConditionsComfort  
Time TempWeatherWind HumidityBarometerVisibility
12:00 AM
Sun, Aug 2
52 °FClear.7 mph94%29.97 "Hg15 mi
11:00 PM
Sat, Aug 1
55 °FPassing clouds.7 mph94%29.96 "Hg15 mi
10:00 PM59 °FPassing clouds.7 mph88%29.95 "Hg15 mi
9:00 PM63 °FPassing clouds.7 mph83%29.92 "Hg15 mi
8:00 PM68 °FPartly sunny.9 mph69%29.90 "Hg15 mi
7:00 PM70 °FPartly sunny.12 mph64%29.89 "Hg15 mi
6:00 PM68 °FScattered showers. Partly sunny.12 mph64%29.91 "Hg15 mi
5:00 PM68 °FScattered showers. Partly sunny.8 mph69%29.91 "Hg15 mi
4:00 PM70 °FScattered showers. Partly sunny.7 mph60%29.91 "Hg15 mi
3:00 PM70 °FPartly sunny.No wind60%29.90 "Hg15 mi
2:00 PM73 °FPartly sunny.9 mph53%29.91 "Hg15 mi
1:00 PM72 °FPartly sunny.12 mph61%29.92 "Hg15 mi
12:00 PM72 °FPartly sunny.8 mph61%29.90 "Hg15 mi
11:00 AM73 °FPartly sunny.13 mph53%29.89 "Hg15 mi
10:00 AM68 °FBroken clouds.7 mph69%29.90 "Hg15 mi
9:00 AM64 °FScattered showers. Partly sunny.6 mph78%29.90 "Hg15 mi
8:00 AM64 °FScattered showers. Broken clouds.6 mph78%29.89 "Hg15 mi
7:00 AM59 °FScattered showers. Partly sunny.6 mph94%29.89 "Hg15 mi
6:00 AM57 °FScattered showers. Partly sunny.3 mph94%29.91 "Hg15 mi
5:00 AM55 °FScattered showers. Passing clouds.5 mph94%29.91 "Hg15 mi
4:00 AM54 °FPartly cloudy.5 mph94%29.93 "Hg15 mi
3:00 AM59 °FPassing clouds.6 mph82%29.93 "Hg15 mi
2:00 AM61 °FPassing clouds.6 mph77%29.93 "Hg15 mi
1:00 AM63 °FPassing clouds.10 mph73%29.95 "Hg15 mi
Weather by CustomWeather, © 2015

See weather overviewHow to use our weather pages